Regional Weather Roundup
Issued by NWS Kansas City/Pleasant Hill, MO

Home | Current Version | Previous Version | Text Only | Print | Product List | Glossary On
Versions: 1 2 3 4 5 6 7 8 9 10 11 12 13 14 15 16 17 18 19 20 21 22 23 24 25 26 27 28 29 30 31 32 33 34 35 36 37 38 39 40 41 42 43 44 45 46 47 48 49 50
000
ASUS43 KEAX 240810
RWREAX

WEATHER ROUNDUP FOR EASTERN KANSAS AND NORTHWEST MISSOURI
NATIONAL WEATHER SERVICE KANSAS CITY/PLEASANT HILL MO
300 AM CDT SUN SEP 24 2017

KSZ040-057-103>105-MOZ028-029-037-043-240900-
...KANSAS CITY METROPOLITAN AREA...

CITY           SKY/WX    TMP DP  RH WIND       PRES   REMARKS
K.C. INTL      CLEAR     72  67  84 SE9       29.95S
K.C. DOWNTOWN  CLEAR     78  67  68 SE8       29.94R
LEES SUMMIT    CLEAR     75  67  76 SE10      29.96S
OLATHE - IXD   CLEAR     72  66  81 SE7       29.95S
OLATHE - OJC   CLEAR     71  68  90 SE6       29.95S
LAWRENCE       CLEAR     70  67  90 E7        29.93S

$$

MOZ001>008-011>017-020>025-030>033-038>040-044>046-053-054-240900-
...NORTHERN AND CENTRAL MISSOURI...

CITY           SKY/WX    TMP DP  RH WIND       PRES   REMARKS
ST. JOSEPH     CLEAR     67  66  97 NE3       29.94S
MOSBY          SUNNY     66  64  94 CALM      29.96R FOG
WARRENSBURG    CLEAR     70  64  83 S5        29.96R
WHITEMAN AFB   CLEAR     73  73  99 S6        29.96R
CLINTON        CLEAR     72  66  83 S3        29.97S
SEDALIA        CLEAR     70  67  90 SE6       29.99S
WARSAW         NOT AVBL
CHILLICOTHE      N/A     72  66  81 S3        29.97S
KIRKSVILLE     CLEAR     69  62  78 SE6       30.00S

$$

MOZ041-047>049-056>058-063>065-088>090-097-240900-
...EASTERN AND SOUTHERN MISSOURI...

CITY           SKY/WX    TMP DP  RH WIND       PRES   REMARKS
ST. LOUIS INTL CLEAR     74  63  68 SE8       30.02R
SPIRIT OF STL  CLEAR     67  66  97 CALM      30.00S
COLUMBIA       CLEAR     72  64  76 SE7       30.00S
JEFFERSON CITY CLEAR     71  63  75 SE3       29.99R
ROLLA          CLEAR     68  63  84 S6        30.02S
OSAGE BEACH    CLEAR     69  64  84 SE5       30.01R
SPRINGFIELD    CLEAR     70  65  84 SE7       29.99S
BRANSON          N/A     66  63  88 CALM      30.01S
JOPLIN         CLEAR     73  66  78 SE10      29.96S
WEST PLAINS    CLEAR     65  62  90 CALM      30.03F

$$

IAZ060-094-KSZ022-034>040-054-083-096-NEZ052-066-093-240900-
...KANSAS...SOUTHEAST NEBRASKA AND IOWA...

CITY           SKY/WX    TMP DP  RH WIND       PRES   REMARKS
TOPEKA         CLEAR     69  67  93 CALM      29.93R
MANHATTAN      PTCLDY    74  63  68 S7        29.90F
EMPORIA        CLEAR     70  62  76 S7        29.93S
CHANUTE        CLEAR     71  64  78 SE7       29.94S
WICHITA        CLEAR     73  66  78 SE10      29.90F
OMAHA          MOCLDY    73  64  73 S10       29.91S
LINCOLN        PTCLDY    72  63  73 S9        29.90R
FALLS CITY     CLEAR     68  65  90 SE5       29.92S
LAMONI         CLEAR     72  64  76 SE5       29.97F
DES MOINES     CLOUDY    73  64  73 SE8       29.96S

$$




USA.gov is the U.S. government's official web portal to all federal, state and local government web resources and services.